#timestamp,LO_Frequency,Hit,StdDev 
1553022015.5,286046998.4,Y
1553022035.3,286046997.9,P
1553022055.2,286046999.2,N
1553022075.0,286046996.7,N
1553022075.9,286046996.7,N
1553022095.8,286046997.7,N
1553022115.6,286046995.1,N
1553022135.4,286046996.7,N
1553022155.3,286046999.3,N
1553022175.1,286046999.2,N
1553022195.8,286046997.7,N
1553022215.7,286046996.5,N
1553022235.5,286046999.5,N
1553022255.4,286046999.0,N
1553022275.2,286046998.3,N
1553022295.0,286046996.5,N
1553022295.9,286046996.5,N
1553022315.8,286046997.3,N
1553022335.6,286046997.5,N
1553022355.4,286046997.2,N
1553022375.3,286046996.6,N
1553022395.1,286046999.5,N
1553022415.9,286046996.7,N
1553022435.7,286046996.8,N
1553022455.5,286046999.4,N
1553022475.4,286046998.5,N
1553022495.2,286047000.2,N
1553022515.0,286047001.1,N
1553022515.9,286047001.1,N
1553022535.8,286047002.1,N
1553022555.6,286047003.2,N
1553022575.5,286047002.8,N
1553022595.3,286047000.6,N
1553022615.1,286047000.9,N
1553022635.9,286047000.4,N
1553022655.7,286046998.6,N
1553022675.5,286046998.5,N
1553022695.4,286046998.9,N
1553022715.2,286046998.6,N
1553022735.1,286046998.9,N
1553022736.0,286046998.9,N
1553022755.8,286047000.9,N
1553022775.6,286046998.9,N
1553022795.5,286046995.3,N
1553022815.3,286046995.2,N
1553022835.1,286046994.6,N
1553022855.9,286046994.5,N
1553022875.7,286046992.2,Y
1553022895.6,286046994.5,P
1553022915.4,286046994.7,N
1553022935.2,286046995.3,N
1553022955.1,286046994.2,Y
1553022956.0,286046994.2,P
1553022975.8,286046995.1,P
1553022995.6,286046994.6,P
1553023015.5,286046992.0,Y
1553023035.3,286046995.3,P
1553023055.2,286046997.2,P
1553023075.9,286046997.0,P
1553023095.7,286046997.0,Y
1553023115.6,286047004.3,P
1553023135.4,286047002.0,N
1553023155.3,286047002.6,N
1553023175.1,286047003.8,N
1553023176.0,286047003.8,N
1553023195.8,286047007.0,N
1553023215.7,286047008.5,N
1553023235.5,286047009.3,N
1553023255.3,286047013.3,Y
1553023275.2,286047010.4,P
1553023295.0,286047009.4,P
1553023295.9,286047009.4,P
1553023315.8,286047010.2,Y
1553023335.6,286047000.0,P
1553023355.4,286046998.4,N
1553023375.3,286046998.8,N
1553023395.1,286046998.5,N
1553023415.9,286047000.7,N
1553023435.7,286046998.4,N
1553023455.5,286046998.9,N
1553023475.4,286046998.2,N
1553023495.2,286046999.5,N
1553023515.0,286046998.4,N
1553023515.9,286046998.4,N
1553023535.8,286047001.6,N
1553023555.6,286047004.0,N
1553023575.5,286047002.1,N
1553023595.3,286047000.2,N
1553023615.1,286047000.0,N
1553023635.9,286046998.1,N
1553023655.7,286047002.8,N
1553023675.5,286047000.2,N
1553023695.4,286046998.2,N
1553023715.2,286046999.2,N
1553023735.0,286046999.6,N
1553023735.9,286046999.6,N
1553023755.8,286046997.3,N
1553023775.6,286046997.1,N
1553023795.5,286046998.0,N
1553023815.3,286046997.7,N
1553023835.1,286046997.4,N
1553023855.9,286046997.4,N
1553023875.7,286046998.5,N
1553023895.5,286046998.1,N
1553023915.4,286046998.7,N
1553023935.2,286046999.9,N
1553023955.1,286047001.1,N
1553023956.0,286047001.1,N
1553023975.8,286047001.1,N
1553023995.6,286046996.9,N
1553024015.5,286046997.4,N
1553024035.3,286046995.1,N
1553024055.1,286046996.4,N
1553024075.9,286046992.0,Y
1553024095.7,286046993.7,P
1553024115.6,286046991.7,P
1553024135.4,286046994.1,N
1553024155.2,286046993.8,N
1553024175.1,286046995.8,N
1553024176.0,286046995.8,N
1553024195.8,286046997.1,N
1553024215.6,286046999.1,N
1553024235.5,286046998.8,N
1553024255.3,286046995.1,N
1553024275.2,286046995.0,N
1553024295.9,286046994.9,N
1553024315.7,286046997.9,N
1553024335.6,286046998.0,N
1553024355.4,286046996.4,N
1553024375.2,286046993.0,Y
1553024395.1,286046994.2,P
1553024426.0,286046993.0,E
1553024435.0,286046994.0,N
1553024435.9,286046994.0,P
1553024455.8,286046995.5,P
1553024475.6,286046996.2,Y
1553024495.4,286047000.1,P
1553024515.3,286046998.5,N
1553024535.1,286046998.6,N
1553024555.9,286046999.1,N
1553024575.7,286046997.1,N
1553024595.5,286046995.6,N
1553024615.4,286046993.4,Y
1553024635.2,286046999.6,P
1553024655.1,286046998.9,N
1553024656.0,286046998.9,N
1553024675.8,286047001.2,N
1553024695.6,286046998.1,N
1553024715.5,286047000.0,N
1553024735.3,286046999.8,N
1553024755.1,286046999.9,N
1553024775.9,286047000.6,N
1553024795.7,286047000.0,N
1553024815.6,286046999.7,N
1553024835.4,286047002.5,N
1553024855.2,286047002.5,N
1553024875.1,286047004.3,Y
1553024876.0,286047004.3,P
1553024895.8,286047004.4,N
1553024915.6,286047004.4,N
1553024935.5,286047003.8,N
1553024955.3,286047003.7,N
1553024975.2,286047007.6,Y
1553024995.9,286047001.9,P
1553025015.7,286047003.2,P
1553025035.6,286047003.5,P
1553025055.4,286047004.0,Y
1553025075.2,286047000.0,P
1553025095.1,286047002.2,N
1553025096.0,286047002.2,N
1553025115.8,286047001.8,N
1553025135.7,286047001.5,N
1553025155.5,286047004.1,Y
1553025175.3,286047006.0,P
1553025195.2,286047005.9,N
1553025215.0,286047003.1,N
1553025215.9,286047003.1,N
1553025235.8,286047005.8,Y
1553025255.6,286046999.7,P
1553025275.4,286047001.0,N
1553025295.3,286047000.5,N
1553025315.1,286047000.8,N
1553025335.8,286046999.1,N
1553025355.7,286046998.6,N
1553025375.5,286046999.0,N
1553025395.4,286046998.5,N
1553025415.2,286047000.8,N
1553025435.0,286046999.8,N
1553025435.9,286046999.8,N
1553025455.8,286047000.6,N
1553025475.6,286047000.3,N
1553025495.4,286047000.6,N
1553025515.3,286046998.9,N
1553025535.1,286047000.8,N
1553025555.9,286047000.5,N
1553025575.7,286047002.6,N
1553025595.5,286047002.0,N
